Torna al catalogo

STARLINK-37515

AttivoComunicazioniVLEO
NORAD 69169·PAYLOAD·🇺🇸 United States

Lanciato May 21, 2026 da Cape Canaveral Space Force Station

Loading…

Prossimi Passaggi (prossime 24 ore)

TLE

AggiornatoSource: CelesTrak SupGP

Epoca: Sep 15, 2026, 04:29 UTC

1 69169C 26111X   26258.18729167 -.00026595  00000+0 -78590-3 0  2584
2 69169  53.1565  90.4174 0001180  92.3248 318.8527 15.34397977    11

Traccia STARLINK-37515 in tempo reale con AllMySat

Download on the App Store